St. Cloud, MN

11:10 PM CST on November 12, 2019 (GMT -0600)
Saint Cloud Regional

Weather History for KSTC - May, 2019

Change the Weather History Date:

Friday, May 3, 2019

  Actual Average Record
Temperature  
Mean Temperature 44 °F 52 °F  
Max Temperature 60 °F 65 °F 94 °F (1949)
Min Temperature 28 °F 40 °F 18 °F (1907)
Degree Days  
Heating Degree Days 21 13  
Month to date heating degree days 66 40  
Since 1 July heating degree days 8864 8207  
Cooling Degree Days 0 0  
Month to date cooling degree days 0 0  
Year to date cooling degree days 0 2  
Moisture  
Dew Point 39 °F    
Average Humidity 72    
Maximum Humidity 100    
Minimum Humidity 43    
Precipitation  
Precipitation 0.32 in 0.10 in 2.96 in (1912)
Month to date precipitation 0.38 0.29  
Year to date precipitation 7.73 5.65  
Snow  
Snow 0.00 in 0.00 in 0.50 in (1954)
Month to date snowfall 0.0 0.0  
Since 1 July snowfall 68.5 45.7  
Snow Depth 0.00 in    
Sea Level Pressure  
Sea Level Pressure 30.04 in    
Wind  
Wind Speed 7 mph (SSE)    
Max Wind Speed 18 mph    
Max Gust Speed 38 mph    
Visibility 6 miles    
Events Fog , Rain    
T = Trace of Precipitation, MM = Missing Value Source: NWS Daily Summary

Daily Weather History Graph

Daily Weather History Graph

Search for Another Location

Airport or City:

Astronomy

May. 03, 2019 Rise Set
Actual Time 6:01 AM CDT 8:25 PM CDT
Civil Twilight 5:28 AM CDT 8:58 PM CDT
Nautical Twilight 4:47 AM CDT 9:40 PM CDT
Astronomical Twilight 4:01 AM CDT 10:26 PM CDT
Moon 5:51 AM CDT (5/3) 7:06 PM CDT (5/3)
Length of Visible Light 15h 30m
Length of Day
14h 23m
Waning Crescent, 2% of the Moon is Illuminated
May 3
Waning Crescent
May 4
New
May 11
First Quarter
May 18
Full
May 26
Last Quarter

Hourly Weather History & Observations

Time (CDT) Temp. Windchill Dew Point Humidity Pressure Visibility Wind Dir Wind Speed Gust Speed Precip Events Conditions
12:53 AM 35.1 °F - 33.1 °F 92% 30.17 in 10.0 mi Calm Calm - N/A   Clear
1:53 AM 33.1 °F - 30.9 °F 92% 30.16 in 10.0 mi Calm Calm - N/A   Clear
2:53 AM 32.0 °F - 30.0 °F 92% 30.16 in 10.0 mi Calm Calm - N/A   Clear
3:53 AM 30.0 °F - 28.9 °F 96% 30.15 in 9.0 mi Calm Calm - N/A   Clear
4:53 AM 28.9 °F - 28.0 °F 96% 30.14 in 9.0 mi Calm Calm - N/A   Clear
5:53 AM 28.9 °F - 27.0 °F 92% 30.15 in 10.0 mi Calm Calm - N/A   Clear
6:53 AM 32.0 °F - 30.9 °F 96% 30.14 in 10.0 mi Calm Calm - N/A   Clear
7:53 AM 39.9 °F 36.7 °F 34.0 °F 79% 30.12 in 10.0 mi East 4.6 mph - N/A   Clear
8:53 AM 45.0 °F 40.1 °F 35.1 °F 68% 30.13 in 10.0 mi SE 9.2 mph - N/A   Overcast
9:53 AM 50.0 °F - 34.0 °F 54% 30.11 in 10.0 mi SSE 11.5 mph - N/A   Overcast
10:53 AM 53.1 °F - 34.0 °F 48% 30.10 in 10.0 mi SSE 11.5 mph 20.7 mph N/A   Scattered Clouds
11:53 AM 53.1 °F - 34.0 °F 48% 30.09 in 10.0 mi South 13.8 mph - N/A   Partly Cloudy
12:53 PM 53.1 °F - 34.0 °F 48% 30.06 in 10.0 mi SSE 13.8 mph - N/A   Overcast
1:53 PM 57.0 °F - 36.0 °F 45% 30.05 in 10.0 mi SSE 12.7 mph 20.7 mph N/A   Partly Cloudy
2:53 PM 59.0 °F - 37.9 °F 46% 30.02 in 10.0 mi SSE 16.1 mph 25.3 mph N/A   Mostly Cloudy
3:53 PM 57.9 °F - 37.9 °F 47% 29.99 in 10.0 mi SSE 18.4 mph 25.3 mph N/A   Mostly Cloudy
4:53 PM 55.0 °F - 43.0 °F 64% 29.97 in 10.0 mi SSE 8.1 mph - 0.02 in Rain Light Rain
5:53 PM 50.0 °F - 45.0 °F 83% 30.00 in 3.0 mi SW 10.4 mph - 0.17 in Rain Rain
6:42 PM 48.9 °F - 46.9 °F 93% 29.94 in 2.0 mi SSE 9.2 mph - 0.11 in Rain Rain
6:53 PM 48.9 °F - 46.9 °F 93% 29.98 in 5.0 mi SE 9.2 mph - 0.12 in Rain Light Rain
7:53 PM 50.0 °F - 46.9 °F 89% 29.96 in 10.0 mi SSE 8.1 mph - 0.01 in   Mostly Cloudy
8:53 PM 46.0 °F 43.9 °F 45.0 °F 96% 29.97 in 7.0 mi South 4.6 mph - N/A   Clear
9:41 PM 45.0 °F 41.8 °F 44.1 °F 97% 29.95 in 2.5 mi SSE 5.8 mph - N/A   Clear
9:53 PM 45.0 °F 43.5 °F 44.1 °F 97% 29.99 in 4.0 mi South 3.5 mph - N/A   Clear
10:06 PM 45.0 °F 43.5 °F 44.1 °F 97% 29.95 in 1.5 mi South 3.5 mph - N/A   Clear
10:13 PM 44.1 °F 42.5 °F 44.1 °F 100% 29.95 in 0.2 mi South 3.5 mph - N/A Fog Fog
10:27 PM 43.0 °F - 42.1 °F 97% 29.95 in 0.2 mi Calm Calm - N/A Fog Fog
10:42 PM 42.8 °F 41.1 °F 42.8 °F 100% 29.95 in 0.2 mi South 3.5 mph - N/A Fog Fog
10:53 PM 42.1 °F - 41.0 °F 96% 29.99 in 0.2 mi Calm Calm - N/A Fog Fog
11:23 PM 42.1 °F 40.2 °F 42.1 °F 100% 29.94 in 0.2 mi SSE 3.5 mph - N/A Fog Fog
11:49 PM 44.6 °F 42.2 °F 44.6 °F 100% 29.94 in 0.2 mi SSW 4.6 mph - N/A Fog Fog
11:53 PM 44.1 °F 41.5 °F 44.1 °F 100% 29.98 in 0.2 mi South 4.6 mph - N/A Fog Fog